Alice, TX

12:43 PM CDT on October 19, 2017 (GMT -0500)
Alice International

Weather History for KALI - February, 2014

Change the Weather History Date:

Saturday, February 22, 2014

  Actual Average Record
Temperature  
Mean Temperature 58 °F -  
Max Temperature 71 °F 70 °F 93 °F (2017)
Min Temperature 45 °F 49 °F 39 °F (2009)
Degree Days  
Heating Degree Days 7    
Growing Degree Days 8 (Base 50)    
Moisture  
Dew Point 56 °F    
Average Humidity 82    
Maximum Humidity 90    
Minimum Humidity 68    
Precipitation  
Precipitation 0.00 in - - ()
Sea Level Pressure  
Sea Level Pressure 29.94 in    
Wind  
Wind Speed 6 mph (East)    
Max Wind Speed 14 mph    
Max Gust Speed -    
Visibility 10 miles    
Events      
Averages and records for this station are not official NWS values.
T = Trace of Precipitation, MM = Missing Value Source: NWS Daily Summary

Daily Weather History Graph

Daily Weather History Graph

Search for Another Location

Airport or City:

Trip Planner

Search our weather history database for the weather conditions in past years. The results will help you decide how hot, cold, wet, or windy it might be!

Date:

Astronomy

Feb. 22, 2014 Rise Set
Actual Time 7:03 AM CST 6:28 PM CST
Civil Twilight 6:39 AM CST 6:51 PM CST
Nautical Twilight 6:12 AM CST 7:19 PM CST
Astronomical Twilight 5:45 AM CST 7:46 PM CST
Moon 12:48 AM CST (2/22) 11:53 AM CST (2/22)
Length of Visible Light 12h 12m
Length of Day
11h 24m
Waning Gibbous, 50% of the Moon is Illuminated
Feb 22
Waning Gibbous
Mar 1
New
Mar 8
First Quarter
Mar 16
Full
Mar 23
Last Quarter

Hourly Weather History & Observations

Time (CST) Temp. Windchill Dew Point Humidity Pressure Visibility Wind Dir Wind Speed Gust Speed Precip Events Conditions
12:53 AM 50.0 °F - 43.0 °F 77% 30.04 in 10.0 mi ESE 3.5 mph - N/A   Clear
1:53 AM 46.9 °F - 42.1 °F 83% 30.01 in 10.0 mi ENE 3.5 mph - N/A   Clear
2:53 AM 48.0 °F - 43.0 °F 83% 29.99 in 10.0 mi Calm Calm - N/A   Clear
3:53 AM 46.0 °F 43.9 °F 42.1 °F 86% 29.97 in 10.0 mi NE 4.6 mph - N/A   Clear
4:53 AM 46.0 °F 43.9 °F 42.1 °F 86% 29.97 in 10.0 mi NNE 4.6 mph - N/A   Clear
5:53 AM 45.0 °F 43.5 °F 42.1 °F 90% 29.96 in 10.0 mi ENE 3.5 mph - N/A   Clear
6:53 AM 46.0 °F 42.5 °F 42.1 °F 86% 29.98 in 10.0 mi NNE 6.9 mph - N/A   Clear
7:43 AM 48.9 °F - 43.0 °F 80% 29.99 in 10.0 mi NNE 5.8 mph - N/A   Mostly Cloudy
7:53 AM 50.0 °F - 44.1 °F 80% 29.99 in 10.0 mi NNE 6.9 mph - N/A   Mostly Cloudy
8:53 AM 55.9 °F - 48.9 °F 77% 30.01 in 10.0 mi ENE 5.8 mph - N/A   Overcast
9:53 AM 62.1 °F - 53.1 °F 72% 30.02 in 10.0 mi East 5.8 mph - N/A   Overcast
10:53 AM 68.0 °F - 57.0 °F 68% 30.01 in 10.0 mi Calm Calm - N/A   Overcast
11:53 AM 70.0 °F - 60.1 °F 71% 29.99 in 10.0 mi SE 6.9 mph - N/A   Overcast
12:53 PM 71.1 °F - 61.0 °F 70% 29.96 in 10.0 mi ESE 10.4 mph - N/A   Overcast
1:53 PM 71.1 °F - 61.0 °F 70% 29.92 in 10.0 mi East 9.2 mph - N/A   Overcast
2:53 PM 70.0 °F - 62.1 °F 76% 29.89 in 10.0 mi East 13.8 mph - N/A   Overcast
3:53 PM 69.1 °F - 62.1 °F 78% 29.88 in 10.0 mi East 13.8 mph - N/A   Overcast
4:28 PM 69.1 °F - 62.1 °F 78% 29.89 in 10.0 mi East 11.5 mph - N/A   Overcast
4:53 PM 69.1 °F - 62.1 °F 78% 29.88 in 10.0 mi East 11.5 mph - N/A   Overcast
5:53 PM 68.0 °F - 62.1 °F 81% 29.88 in 10.0 mi ESE 12.7 mph - N/A   Overcast
6:53 PM 66.9 °F - 63.0 °F 87% 29.88 in 8.0 mi ESE 11.5 mph - N/A   Overcast
7:11 PM 66.9 °F - 63.0 °F 87% 29.89 in 10.0 mi ESE 9.2 mph - N/A   Overcast
7:22 PM 66.9 °F - 63.0 °F 87% 29.89 in 10.0 mi ESE 11.5 mph - N/A   Overcast
7:33 PM 66.9 °F - 63.0 °F 87% 29.89 in 10.0 mi ESE 9.2 mph - N/A   Overcast
7:53 PM 66.9 °F - 63.0 °F 87% 29.89 in 10.0 mi ESE 10.4 mph - N/A   Overcast
8:53 PM 66.9 °F - 63.0 °F 87% 29.90 in 10.0 mi ESE 6.9 mph - N/A   Overcast
9:17 PM 66.9 °F - 63.0 °F 87% 29.90 in 10.0 mi ESE 8.1 mph - N/A   Overcast
9:39 PM 66.9 °F - 63.0 °F 87% 29.90 in 10.0 mi ESE 9.2 mph - N/A   Overcast
9:53 PM 66.9 °F - 63.0 °F 87% 29.90 in 10.0 mi ESE 9.2 mph - N/A   Overcast
10:53 PM 66.9 °F - 64.0 °F 90% 29.91 in 10.0 mi ESE 8.1 mph - N/A   Overcast
11:53 PM 66.9 °F - 64.0 °F 90% 29.91 in 9.0 mi ESE 5.8 mph - N/A   Overcast